Home > Weather > Karaganda > Past weeks

Flag for Kazakhstan Past Weather in Karaganda, Kazakhstan — Yesterday and Last 2 Weeks

Now
77 °F

Broken clouds.


Feels Like: 77 °F
Forecast: 54 / 74 °F
Wind: 20 mph from East

Location: Karaganda

Current Time: May 26, 2016 at 4:45:56 PM

Latest Report: May 26, 2016 at 4:00 PM


Visibility: N/A

Pressure: 29.74 "Hg (27.91 "Hg at 555m altitude)

Humidity: 22%

Dew Point: 36 °F

Location of KaragandaLocation

Past Weather in Karaganda — Graph

°F

Karaganda Temperature Yesterday

Maximum temperature yesterday: 77 °F (at 12:00 PM)
Minimum temperature yesterday: 41 °F (at 4:30 AM)
Average temperature yesterday: 62 °F

High & Low Weather Summary for the Past Weeks

 TemperatureHumidityPressure
High77 °F (May 25, 12:00 PM)100% (May 12, 7:00 AM)30.48 "Hg (May 12, 7:00 AM)
Low25 °F (May 18, 4:30 AM)13% (May 14, 5:00 PM)29.62 "Hg (May 15, 2:00 AM)
Average54 °F56%30.07 "Hg
* Reported May 11 3:00 PM — May 26 3:30 PM, Karaganda, Weather by CustomWeather, © 2016

Note: Actual official high and low records may vary slightly from our data, if they occured in-between our weather recording intervals... More about our weather records

Advertising

Karaganda Weather History for the Previous 24 Hours

Scroll right to see more
 ConditionsComfort  
Time TempWeatherWind HumidityBarometerVisibility
3:30 PM
Thu, May 26
77 °FPassing clouds.13 mph24%29.74 "HgN/A
3:00 PM77 °FSunny.17 mph22%29.74 "Hg10 mi
2:30 PM73 °FPassing clouds.10 mph25%29.74 "HgN/A
2:00 PM77 °FSunny.10 mph26%29.74 "Hg10 mi
1:30 PM75 °FSunny.15 mph29%29.74 "Hg10 mi
1:00 PM75 °FPassing clouds.15 mph27%29.74 "HgN/A
12:30 PM73 °FSunny.17 mph27%29.74 "Hg10 mi
12:00 PM75 °FSunny.20 mph27%29.74 "Hg10 mi
11:30 AM73 °FSunny.20 mph27%29.74 "Hg10 mi
11:00 AM73 °FSunny.17 mph31%29.74 "Hg10 mi
10:30 AM72 °FSunny.17 mph38%29.74 "Hg10 mi
10:00 AM70 °FSunny.15 mph38%29.74 "Hg10 mi
9:30 AM68 °FSunny.15 mph38%29.71 "Hg10 mi
9:00 AM66 °FPassing clouds.10 mph43%29.71 "HgN/A
8:30 AM63 °FSunny.10 mph49%29.71 "Hg10 mi
8:00 AM61 °FSunny.10 mph48%29.71 "Hg10 mi
7:30 AM59 °FSunny.15 mph51%29.71 "Hg10 mi
7:00 AM55 °FSunny.13 mph59%29.71 "Hg10 mi
6:30 AM54 °FSunny.10 mph63%29.71 "Hg10 mi
6:00 AM48 °FClear.6 mph71%29.71 "Hg10 mi
5:30 AM46 °FClear.8 mph71%29.71 "Hg10 mi
5:00 AM48 °FClear.6 mph66%29.71 "Hg10 mi
4:30 AM45 °FPassing clouds.3 mph76%29.71 "HgN/A
4:00 AM48 °FClear.6 mph66%29.71 "Hg10 mi
3:30 AM52 °FClear.10 mph58%29.71 "Hg10 mi
3:00 AM52 °FClear.10 mph58%29.71 "Hg10 mi
2:30 AM52 °FClear.10 mph62%29.71 "Hg10 mi
2:00 AM54 °FPassing clouds.10 mph58%29.71 "HgN/A
1:30 AM55 °FPassing clouds.8 mph51%29.71 "HgN/A
1:00 AM55 °FPassing clouds.6 mph55%29.71 "HgN/A
12:30 AM55 °FPassing clouds.6 mph59%29.71 "HgN/A
12:00 AM57 °FClear.8 mph55%29.74 "Hg10 mi
11:30 PM
Wed, May 25
59 °FClear.6 mph51%29.74 "Hg10 mi
11:00 PM55 °FClear.8 mph63%29.74 "Hg10 mi
10:30 PM55 °FClear.8 mph63%29.74 "Hg10 mi
10:00 PM57 °FClear.8 mph55%29.74 "Hg10 mi
9:30 PM57 °FSunny.10 mph59%29.71 "Hg10 mi
9:00 PM64 °FSunny.6 mph40%29.71 "Hg10 mi
8:30 PM70 °FBroken clouds.1 mph33%29.71 "HgN/A
8:00 PM73 °FBroken clouds.3 mph25%29.71 "HgN/A
7:30 PM73 °FBroken clouds.1 mph25%29.71 "HgN/A
7:00 PM75 °FBroken clouds.1 mph22%29.71 "HgN/A
6:30 PM72 °FBroken clouds.6 mph38%29.71 "HgN/A
6:00 PM73 °FBroken clouds.8 mph25%29.71 "HgN/A
5:30 PM77 °FBroken clouds.8 mph18%29.74 "HgN/A
5:00 PM75 °FBroken clouds.13 mph19%29.74 "HgN/A
4:30 PM77 °FBroken clouds.13 mph22%29.74 "HgN/A
4:00 PM75 °FBroken clouds.13 mph22%29.74 "HgN/A
Weather by CustomWeather, © 2016

See weather overviewHow to use our weather pages